Location: Newborough
(52.6167°N, 0.2167°W)
Time: 06:25:43
(UTC+00:00)

Daily predictions for brighter satellites

Satellite Brightness Start Highest point End
(mag) Time Altitude Azimuth Time Altitude Azimuth Time Altitude Azimuth
NOSS 3-3 (A) 4.3 20:51:54 10° SW 20:57:23 72° NW 21:04:02 10° NE
Okean O Rocket 2.6 20:55:31 10° S 20:59:42 45° W 21:03:57 10° NNW
Cosmos 1025 Rocket 3.6 20:56:14 10° SSE 21:00:17 40° E 21:04:23 10° NNE
NOSS 8 (H) 4.5 21:00:08 10° SW 21:04:00 83° NW 21:07:04 10° NE
CZ-4 R/B 4.5 21:08:56 10° W 21:09:18 10° W 21:09:40 10° W
RESURS DK-1 4.2 21:09:25 10° NNW 21:12:33 21° NE 21:15:40 10° E
In-Cosmos 22 Rocket 4.3 21:06:55 10° S 21:12:43 85° ESE 21:18:29 10° NNE
Cosmos 1503 Rocket 4.0 21:14:11 10° SSW 21:19:21 87° ESE 21:24:32 10° NNE
DNEPR-1 R/B 3.8 21:15:55 10° NW 21:20:10 60° NE 21:24:25 10° ESE
USA 215 3.8 21:16:27 10° E 21:22:54 63° N 21:29:22 10° WNW
Cosmos 2369 Rocket 2.2 21:18:55 10° SSW 21:24:37 85° ESE 21:30:20 10° NNE
ASTEX 1 3.4 21:21:11 10° N 21:26:05 78° E 21:30:55 10° S
Cosmos 1354 Rocket 4.0 21:23:39 10° SSW 21:28:51 77° ESE 21:34:06 10° NNE
Cosmos 2297 Rocket 3.5 21:28:19 10° NNW 21:33:23 32° NE 21:38:26 10° ESE
SAR-Lupe-2 3.9 21:29:54 10° S 21:33:27 62° WSW 21:37:03 10° NNW
ISS -3.7 21:31:00 10° W 21:34:19 64° SSW 21:37:38 10° ESE
COBE Rocket 4.1 21:31:32 10° NNE 21:36:03 48° E 21:40:31 10° S
Okean 2 Rocket 3.9 21:33:32 10° NNW 21:37:45 47° W 21:41:56 10° SSW
Cosmos 2098 Rocket 3.7 21:35:28 10° NNE 21:38:14 27° ENE 21:40:47 13° SE
Ariane Rocket 3.2 21:33:20 10° S 21:38:23 72° WSW 21:43:27 10° NNW
Cosmos 2263 4.2 21:40:18 10° SSW 21:45:58 90° SE 21:51:39 10° NNE
CZ-4C R/B 2.0 21:42:02 10° SSW 21:46:17 49° SE 21:51:40 10° NE
Cosmos 923 Rocket 4.4 21:44:01 10° NNW 21:49:07 54° ENE 21:53:32 14° SE
Cosmos 1515 2.6 21:47:00 10° N 21:49:37 85° ENE 21:51:23 18° SSE
Lacrosse 5 rocket 2.4 21:46:18 10° WNW 21:50:01 43° N 21:53:49 10° ENE
Cosmos 44 3.1 21:47:05 10° SSW 21:51:18 57° SE 21:55:41 10° NE
Okean 1 Rocket 4.0 21:47:32 10° NNW 21:51:43 44° W 21:55:50 10° SSW
Helios 1A 4.4 21:48:19 10° N 21:51:59 37° WNW 21:55:38 10° SW
Cosmos 1975 Rocket 3.4 21:53:27 14° SSE 21:56:56 48° E 22:01:06 10° NNE
Cosmos 2221 Rocket 4.4 21:55:01 10° SSW 21:59:26 54° WNW 22:03:55 10° N
Nadezhda 4 Rocket 4.2 21:53:17 10° SSW 21:59:37 78° WNW 22:05:59 10° N
Cosmos 2228 3.3 21:55:58 10° N 22:00:06 52° ENE 22:03:10 17° SSE
Cosmos 1455 Rocket 3.2 21:59:02 10° NNW 22:03:20 68° W 22:07:03 13° S
Terra 4.2 22:01:18 10° SW 22:04:30 18° W 22:07:43 10° NW
Cosmos 2227 Rocket 3.7 22:01:08 10° NNW 22:06:04 29° NE 22:10:59 10° E
Gbstr 26 Del rocket 3.6 22:03:20 10° W 22:08:22 70° SSW 22:14:36 10° ESE
Cosmos 2285 Rocket 4.0 22:02:05 10° SSW 22:08:27 78° ESE 22:14:55 10° NNE
Cosmos 1867 3.9 22:03:50 10° SSW 22:08:58 43° ESE 22:14:07 10° NE
BREEZE M DEB (TANK) 3.4 22:06:58 10° SW 22:10:00 22° SSE 22:10:09 21° SSE
BREEZE-M DEB (TANK) 3.4 22:05:58 10° WSW 22:15:44 60° S 22:18:59 10° E
Cosmos 2026 Rocket 3.9 22:12:16 10° S 22:18:18 86° E 22:24:24 10° N
Iridium 82 4.3 22:15:17 10° N 22:18:42 85° W 22:20:46 21° S
Cosmos 1898 Rocket 3.5 22:16:18 12° S 22:21:08 62° ESE 22:26:20 10° NNE
ATLAS 5 CENTAUR R/B 4.2 22:18:52 10° NW 22:21:26 17° N 22:24:17 10° NE
Cosmos 1812 4.3 22:21:05 10° NW 22:23:35 22° W 22:26:04 10° SW
USA 81 4.0 22:25:23 15° S 22:29:51 89° ENE 22:35:09 10° N
Cosmos 1553 Rocket 4.0 22:24:52 10° N 22:31:09 79° E 22:35:55 19° SSE
ARIANE 5 R/B 2.9 22:30:39 20° SE 22:33:34 60° ENE 22:37:57 10° N
BlueWalker 3 1.8 22:31:07 10° WNW 22:34:45 60° SSW 22:36:57 22° SE
Cosmos 1900 4.4 22:32:27 10° SW 22:37:30 88° SE 22:42:40 10° NE
Cosmos 1092 Rocket 4.2 22:35:06 10° SSW 22:41:21 75° WNW 22:47:41 10° N
CZ-4C R/B 3.4 22:41:15 10° NNE 22:44:49 53° E 22:46:38 26° SSE
DELTA 2 DEB (DPAF) 3.7 22:40:57 10° NNE 22:44:53 86° ESE 22:47:30 20° SSW
ATLAS 2AS CENTAUR R/B 3.6 22:40:44 10° NW 22:47:20 47° NNE 22:53:47 10° E
SOZ 3.9 22:46:59 10° W 22:49:18 78° S 22:50:38 20° E
RESURS DK-1 2.3 22:46:28 10° NW 22:50:27 69° WSW 22:52:30 27° SSE
Cosmos 1536 Rocket 4.0 22:48:20 24° SSE 22:50:38 47° E 22:54:54 10° NNE
Cosmos 1656 3.8 22:47:10 19° S 22:51:04 54° ESE 22:56:27 10° NE
S3M 4.3 22:45:47 10° N 22:52:04 60° ENE 22:56:23 20° SSE
Aureole 1 Rocket 4.5 22:45:27 10° SSW 22:52:12 76° WNW 22:59:48 10° NNE
Cosmos 2263 Rocket 3.6 22:48:35 10° NNW 22:53:40 33° NE 22:58:42 10° ESE
Cosmos 1544 Rocket 3.8 22:49:30 10° NNW 22:53:51 65° W 22:56:31 23° S
Cosmos 1606 Rocket 4.1 22:52:07 10° N 22:56:22 48° ENE 22:58:50 23° SE
Cosmos 372 Rocket 4.3 22:55:27 10° SW 23:00:30 64° WNW 23:05:34 10° NNE
Meteor 2-20 Rocket 4.4 22:55:03 10° NNW 23:01:08 80° W 23:05:05 22° S
Cosmos 1400 Rocket 2.8 22:57:21 10° NNW 23:01:10 66° W 23:03:02 28° S
Cosmos 2058 3.2 23:01:15 28° SSE 23:02:59 48° E 23:06:48 10° NNE
USA 215 3.2 22:59:13 10° ESE 23:05:48 88° SSW 23:12:23 10° WNW
Cosmos 1782 2.6 23:04:08 10° N 23:07:49 74° ENE 23:09:26 31° SSE
Cosmos 2112 Rocket 4.2 23:04:00 10° NNW 23:09:14 63° WSW 23:12:22 24° S
Cosmos 2369 Rocket 4.4 23:04:31 10° W 23:09:19 27° NW 23:14:08 10° NNE
ISS -2.4 23:07:54 10° W 23:10:32 24° SW 23:10:32 24° SW
Cosmos 2098 Rocket 4.3 23:13:42 10° NW 23:16:16 22° W 23:18:12 14° SW
Cosmos 2297 Rocket 2.3 23:12:15 10° NW 23:17:52 66° WSW 23:21:13 25° S
Cosmos 2219 4.4 23:13:33 10° NNW 23:18:53 39° NE 23:24:09 10° ESE
Cosmos 1937 Rocket 3.8 23:14:20 12° SW 23:19:08 66° WNW 23:24:16 10° NNE
Cosmos 1862 3.9 23:18:17 28° SE 23:19:31 38° E 23:22:56 10° NNE
Cosmos 1726 Rocket 3.9 23:15:03 10° N 23:19:38 61° ENE 23:22:11 26° SSE
Cosmos 1680 Rocket 4.1 23:14:44 10° NW 23:19:45 45° WSW 23:22:44 23° SSW
Cosmos 2058 Rocket 4.2 23:17:12 10° N 23:21:19 35° ENE 23:23:59 19° SE
PSLV R/B 4.2 23:17:47 10° NNE 23:22:18 47° E 23:24:32 27° SSE
ALOS 2 2.6 23:22:00 28° S 23:24:16 81° WSW 23:28:42 10° NNW
Lacrosse 5 rocket 1.2 23:23:49 10° WNW 23:27:46 80° NNE 23:31:05 14° ESE
Cosmos 1980 Rocket 3.7 23:28:23 17° SE 23:30:37 22° ESE 23:34:48 10° NE
Cosmos 1356 Rocket 3.7 23:29:20 10° N 23:33:20 58° ENE 23:35:17 28° SE
CZ-4C R/B 3.2 23:30:00 10° WSW 23:34:38 46° NNW 23:40:36 10° NE
MetOp-A 4.3 23:33:09 24° SW 23:34:47 35° W 23:38:18 10° NNW
Cosmos 1697 Rocket 3.1 23:32:03 25° SSE 23:34:55 45° ESE 23:40:18 10° NE
Cosmos 2360 4.2 23:33:06 20° SSW 23:37:07 79° ESE 23:42:50 10° NNE
Cosmos 1892 Rocket 3.9 23:39:40 29° SSE 23:41:32 51° E 23:45:43 10° NNE
CZ-2C R/B 4.1 23:36:58 10° ESE 23:41:51 33° ENE 23:46:47 10° N
Cosmos 1441 Rocket 3.7 23:44:49 31° SE 23:45:46 38° E 23:49:01 10° NNE
GEOS 3 Rocket 3.9 23:43:45 10° NE 23:48:54 51° SE 23:51:46 25° SSW
Meteor 2-3 Rocket 4.1 23:46:44 25° SSE 23:50:01 54° E 23:55:37 10° NNE
Cosmos 2227 Rocket 2.2 23:45:00 10° NNW 23:50:41 76° WSW 23:54:06 25° SSE
Cosmos 1867 4.4 23:47:13 10° WSW 23:52:32 51° NW 23:57:53 10° NE
